Location: Molalla
(45.1473°N, 122.5770°W)
Time: 17:54:40
(UTC-08:00)

O/OREOS (USA 219) - Visible Passes

Search period start: 15 December 2019 00:00
Search period end: 25 December 2019 00:00
Orbit: 621 x 646 km, 72.0° (Epoch: 22 May)

Date Brightness Start Highest point End Pass type
(mag) Time Alt. Az. Time Alt. Az. Time Alt. Az.
15 Dec ? 05:57:54 10° NNW 06:02:16 44° ENE 06:06:38 10° SE visible
16 Dec ? 04:42:30 12° NNE 04:44:18 14° NE 04:46:41 10° ENE visible
16 Dec ? 06:19:58 11° NNW 06:24:25 88° WSW 06:28:58 10° SSE visible
17 Dec ? 05:04:39 18° NNE 05:06:48 25° NE 05:10:34 10° ESE visible
17 Dec ? 06:42:07 10° NW 06:46:22 40° WSW 06:50:37 10° S visible
18 Dec ? 05:26:51 26° N 05:29:06 48° ENE 05:33:31 10° SE visible
18 Dec ? 07:04:53 10° NW 07:08:08 19° W 07:11:21 10° SW visible
19 Dec ? 04:11:39 15° NE 04:11:39 15° NE 04:13:49 10° E visible
19 Dec ? 05:49:08 32° NNW 05:51:13 80° WSW 05:55:45 10° SSE visible
20 Dec ? 04:34:00 27° ENE 04:34:00 27° ENE 04:37:33 10° ESE visible
20 Dec ? 06:11:31 27° WNW 06:13:08 36° WSW 06:17:18 10° S visible
21 Dec ? 04:56:27 50° E 04:56:27 50° E 05:00:23 10° SE visible
21 Dec ? 06:33:58 16° W 06:34:53 17° W 06:37:52 10° SW visible
21 Dec ? 19:05:38 10° S 19:06:09 13° S 19:06:09 13° S visible
22 Dec ? 05:18:59 53° S 05:18:59 53° S 05:22:31 10° SSE visible
22 Dec ? 19:27:18 10° SSW 19:28:52 21° SSW 19:28:52 21° SSW visible
23 Dec ? 04:04:05 12° ESE 04:04:05 12° ESE 04:04:30 10° ESE visible
23 Dec ? 05:41:36 25° SW 05:41:36 25° SW 05:43:58 10° SSW visible
23 Dec ? 18:11:25 10° SSE 18:14:00 21° ESE 18:14:00 21° ESE visible
23 Dec ? 19:49:40 10° SW 19:51:31 22° WSW 19:51:31 22° WSW visible
24 Dec ? 04:26:45 13° SE 04:26:45 13° SE 04:27:15 10° SE visible
24 Dec ? 06:04:16 10° SW 06:04:16 10° SW 06:04:19 10° SW visible
24 Dec ? 18:32:21 10° S 18:36:35 46° ESE 18:36:35 46° ESE visible
24 Dec ? 20:12:45 10° WSW 20:14:05 16° W 20:14:05 16° W visible
